Regional Weather Roundup
Issued by NWS

Home | Current Version | Previous Version | Graphics & Text | Print | Product List | Glossary On
Versions: 1 2 3 4 5 6 7 8 9 10 11 12 13 14 15 16 17 18 19 20 21 22 23 24 25 26 27 28 29 30 31 32 33 34 35 36 37 38 39 40 41 42 43 44 45 46 47 48 49 50
000
ASUS45 KBOU 271007
RWRCO

WEATHER ROUNDUP FOR COLORADO
NATIONAL WEATHER SERVICE DENVER/BOULDER CO
400 AM MDT TUE JUN 27 2017

NOTE: "FAIR" INDICATES FEW OR NO CLOUDS BELOW 12000 FEET WITH NO
SIGNIFICANT WEATHER AND/OR OBSTRUCTIONS TO VISIBILITY.

COZ001>005-013-030-031-271100-
...NORTHWEST COLORADO...

CITY           SKY/WX    TMP DP  RH WIND       PRES   REMARKS
CRAIG          FAIR      50  38  63 SW3       30.05F
HAYDEN         FAIR      55  34  44 E13       30.07S
MEEKER         FAIR      57  34  41 SE8       30.07F
RABBIT EARS PA FAIR      52  32  46 S5        30.39F
STEAMBOAT SPGS FAIR      48  36  62 E3        30.10F
WALDEN         FAIR      43  32  65 SE5       30.21S
$$

COZ006>008-011-271100-
...WEST CENTRAL VALLEYS...

CITY           SKY/WX    TMP DP  RH WIND       PRES   REMARKS
GRAND JUNCTION FAIR      71  31  22 SE9       29.94S
MONTROSE       FAIR      71  32  23 SE12      30.06R
EAGLE          FAIR      51  30  44 CALM      30.17S
RIFLE          FAIR      58  30  34 SW9       30.05R
DELTA          FAIR      68  32  26 NE8       30.02S
NUCLA          FAIR      68  32  26 E7        30.12R
$$

COZ017>023-064>068-271100-
...SOUTHWEST COLORADO...

CITY           SKY/WX    TMP DP  RH WIND       PRES   REMARKS
DURANGO        FAIR      55  36  48 E8        30.22F
CORTEZ         FAIR      66  40  38 S5        30.12S
PAGOSA SPRINGS FAIR      53  33  47 CALM      30.33S
TELLURIDE      MOCLDY    64  32  29 S10G16    30.37S
WOLF CREEK PAS FAIR      43  34  70 S17G23    30.62S
$$

COZ009-010-012-014-032>034-037-058>063-271100-
...CENTRAL COLORADO...

CITY           SKY/WX    TMP DP  RH WIND       PRES   REMARKS
ASPEN          FAIR      53  30  41 SW8       30.20F
BUENA VISTA    FAIR      46  35  65 W5        30.30S
COPPER MTN     FAIR      54  27  35 S15       30.53S
BERTHOUD PASS  FAIR      43  32  65 W20G25    30.55S
COTTONWOOD PAS FAIR      54  32  43 CALM      30.40F
GUNNISON       FAIR      51  33  50 NE7       30.28R
KREMMLING      NOT AVBL
LEADVILLE      FAIR      42  34  73 E6        30.38F
MONARCH PASS   FAIR      45  30  57 S21G29    30.65S
SALIDA         FAIR      53  37  55 CALM      30.34F
SUNLIGHT       FAIR      52  21  30 SW15      30.43F
WILKERSON PASS FAIR      45  30  57 SW13G18   30.51F
$$

COZ069>075-271100-
...SAN LUIS VALLEY/SANGRE DE CRISTO MOUNTAINS...

CITY           SKY/WX    TMP DP  RH WIND       PRES   REMARKS
ALAMOSA        FAIR      50  40  68 CALM      30.29S
DEL NORTE      FAIR      45  38  76 W6        30.32S
LA VETA PASS   FAIR      48  32  53 SW25G33   30.54S
SAGUACHE       FAIR      46  32  57 N7        30.33S
$$

COZ035-036-038>040-271100-
...NORTHERN COLORADO FRONT RANGE...

CITY           SKY/WX    TMP DP  RH WIND       PRES   REMARKS
DENVER INTL AP MOCLDY    67  42  40 W10       30.03F
DMNS CITY PARK   N/A     61  46  56 SW1G7     30.03S
AURORA         MOCLDY    67  42  39 S18G25    30.03F
FRONT RANGE AP FAIR      70  41  35 S18       30.04F
ERIE MUNI ARPT FAIR      55  51  86 CALM      30.03F
BOULDER MUN AP FAIR      59  50  72 SE3       30.03F
CENTENNIAL     FAIR      63  43  48 S9        30.06F
BROOMFIELD     FAIR      61  52  72 NW9       30.05F
FORT COLLINS   FAIR      57  54  89 N8        30.02F
LONGMONT       FAIR      56  51  81 CALM      30.04F
$$

COZ041-046-047-076>085-087-088-271100-
...PIKES PEAK/PALMER DIVIDE AND SOUTHERN FOOTHILLS...

CITY           SKY/WX    TMP DP  RH WIND       PRES   REMARKS
COLO. SPRINGS  FAIR      56  44  64 NE6       30.14F
A. F. ACADEMY  MOCLDY    49  44  85 N10       30.15F
SCHRIEVER AFB  FAIR      56  43  61 CALM      30.14F
CHEYENNE MTN   FAIR      64  35  32 S5        30.13F
ELLICOTT       FAIR     N/A N/A N/A CALM      30.12F
FALCON           N/A     54  39  58 W8        30.18F
FORT CARSON    FAIR      52  44  75 N8        30.11F
LIMON          MOCLDY    53  53 100 SE6       30.10F
MONUMENT HILL  FAIR      59  36  41 SW12      30.18F
CANON CITY     CLEAR     59  46  63 W10       30.09F
WALSENBURG     FAIR      61  43  51 SW10      30.14F
TRINIDAD       FAIR      63  50  62 SW20G26   30.13F
$$

COZ042>045-048>051-090-091-271100-
...NORTHEAST COLORADO...

CITY           SKY/WX    TMP DP  RH WIND       PRES   REMARKS
GREELEY ARPT   FAIR      59  56  89 E3        30.01F
AKRON          CLOUDY    61  57  87 SE21      30.05F
BURLINGTON     CLOUDY    60  59  96 SE13      30.06F
WRAY           CLOUDY    59  59 100 SE7       30.06F
YUMA           CLOUDY    59  52  77 SE10      30.06S
STERLING       CLOUDY    61  57  88 S14       30.01F
HOLYOKE        NOT AVBL
FORT MORGAN    FAIR      59  56  88 SE12G20   30.02F
$$

COZ086-089-092>099-271100-
...SOUTHEAST COLORADO...

CITY           SKY/WX    TMP DP  RH WIND       PRES   REMARKS
PUEBLO         FAIR      60  45  57 CALM      30.04F
LA JUNTA       FAIR      61  50  67 CALM      30.05F
LAMAR          FAIR      58  56  93 E6        30.02F
SPRINGFIELD      N/A     60  45  57 SW6       30.08S
$$



USA.gov is the U.S. government's official web portal to all federal, state and local government web resources and services.